THOR AGENA D R/B, 2255

Orbit data source: Space-Track

THOR AGENA D R/B, 2255 is space debris in LEO originally from a launch on Fri, 24 Jun 1966 UTC launched from the Air Force Western Test Range (AFWTR). Debris objects in space refer to the collection of defunct objects orbiting the Earth. Examples of debris include non-operational satellites, rocket bodies, and fragments generated from explosions, collisions, or faulty payload assembly.

Loading next visibility...
Identifier
2255, 1966-056B
Orbit
LEO
Country
Flag of USUS
Related business
Manufacturer
LMSC
Mission
Spacecraft
Bus & Motor
AGENA D, Unknown motor
Mass
600 kg wet, 600 kg dry
Launch date (UTC)
1966-06-24 (60 years ago)
Launch vehicle
Unknown
Launch site
Air Force Western Test Range (AFWTR)
Object type
Payload
Rocket body
Debris
Shape & HBR
Unknown
Radar Cross Section
Large (>1 m²)

Expand to show TLE details & history
Last TLE update: 11 hours ago

TLE from 11 hours ago
0 THOR AGENA D R/B
1 02255U 66056B   26034.42369348 -.00000001  00000-0 -33142-2 0  9999
2 02255  86.9732 190.8556 0046956 209.2570 150.5605  7.94757022729698
Epoch: 2026-02-03T10:10Z
TLE epoch observation values (Epoch: 2026-02-03T10:10:07.116Z)
Latitude
0.00005°
Longitude
-95.27888°
Altitude
4,274.027 km
Speed
6.105 km/s
True Right ascension
12h 43m 25s
True Declination
0° 00' 00"
Sunlit
Object was in daylight at epoch
Visualization orbit readout
Latitude
Unknown
Longitude
Unknown
Altitude
Unknown
Speed
Unknown
Apparent Right ascension
Unknown
Apparent Declination
Unknown
Sunlit
N/A
Visualization observer readout
Local Sidereal Time
23:07:30
Azimuth
Unknown
Elevation
Unknown
Doppler factor
Unknown
Orbital elements
Apogee altitude
4,276.273 km
Perigee altitude
4,176.683 km
Semi-major axis
10,604.615 km
Eccentricity
0.0047
Inclination
86.9732°
RAAN
190.8556°
Arg. of periapsis
209.257°
True anomaly
150.82362°
Mean anomaly
150.5605°
Eccentric anomaly
150.69219°
Mean motion
1.98747 °/min
Orbital period
181.13 mins
BSTAR
-0.0033142
Loading maneuver chart data...
Computing Atmospheric mass density...

Documentation

Showing up to 5 results
|